"read_dt","SO2 (ppb)","flags","PMT voltage (V)","lamp voltage (V)","lamp intensity (Hz)","internal temp (C)","react chamber temp (C)","sample flow (l/min)","pres (mmHg)","SO2 bkg (ppb)","SO2 coefficient"
2016-08-29 00:00:00,1943E-3,5C000400,-0724,0827,12123,029.0,045.5,0.253,752.8,01.17,0.508
2016-08-29 00:01:00,2005E-3,5C000400,-0724,0827,12255,029.0,045.5,0.253,752.9,01.17,0.508
2016-08-29 00:02:00,2135E-3,5C000400,-0724,0826,12305,029.0,045.5,0.253,752.9,01.17,0.508
2016-08-29 00:03:00,1949E-3,5C000400,-0724,0826,12185,029.0,045.5,0.253,752.9,01.17,0.508
2016-08-29 00:04:00,2158E-3,5C000400,-0724,0827,12277,028.9,045.4,0.253,752.8,01.17,0.508
2016-08-29 00:05:00,1983E-3,5C000400,-0724,0827,12288,029.0,045.5,0.253,752.9,01.17,0.508
2016-08-29 00:06:00,2087E-3,5C000400,-0724,0826,12095,029.0,045.5,0.253,752.9,01.17,0.508
2016-08-29 00:07:00,1968E-3,5C000400,-0724,0827,12140,029.0,045.5,0.253,753.0,01.17,0.508
2016-08-29 00:08:00,2031E-3,5C000400,-0724,0827,12195,029.0,045.5,0.253,752.9,01.17,0.508
2016-08-29 00:09:00,2000E-3,5C000400,-0724,0826,12253,029.0,045.5,0.253,752.9,01.17,0.508
2016-08-29 00:10:00,2051E-3,5C000400,-0724,0826,12366,029.0,045.5,0.253,753.0,01.17,0.508
2016-08-29 00:11:00,2062E-3,5C000400,-0724,0827,12180,029.0,045.5,0.253,753.0,01.17,0.508
2016-08-29 00:12:00,1945E-3,5C000400,-0724,0827,12237,029.0,045.4,0.253,753.1,01.17,0.508
2016-08-29 00:13:00,1920E-3,5C000400,-0724,0826,12242,029.0,045.5,0.253,753.0,01.17,0.508
2016-08-29 00:14:00,1984E-3,5C000400,-0724,0826,12133,029.0,045.5,0.253,753.0,01.17,0.508
2016-08-29 00:15:00,2013E-3,5C000400,-0724,0827,12381,029.0,045.5,0.253,753.1,01.17,0.508
2016-08-29 00:16:00,2012E-3,5C000400,-0724,0827,12210,029.0,045.5,0.253,753.0,01.17,0.508
2016-08-29 00:17:00,1987E-3,5C000400,-0724,0827,12169,029.0,045.5,0.253,753.0,01.17,0.508
2016-08-29 00:18:00,2195E-3,5C000400,-0724,0827,12306,029.0,045.5,0.253,753.0,01.17,0.508
2016-08-29 00:19:00,1941E-3,5C000400,-0724,0827,12279,029.0,045.5,0.253,753.0,01.17,0.508
2016-08-29 00:20:00,2029E-3,5C000400,-0724,0827,12164,029.0,045.5,0.253,753.1,01.17,0.508
2016-08-29 00:21:00,2008E-3,5C000400,-0724,0826,12116,029.0,045.5,0.253,753.1,01.17,0.508
2016-08-29 00:22:00,1978E-3,5C000400,-0724,0827,12252,029.0,045.5,0.253,753.0,01.17,0.508
2016-08-29 00:23:00,1974E-3,5C000400,-0724,0828,12330,029.0,045.5,0.253,753.1,01.17,0.508
2016-08-29 00:24:00,1943E-3,5C000400,-0724,0827,12211,029.0,045.5,0.253,753.1,01.17,0.508
2016-08-29 00:25:00,1990E-3,5C000400,-0724,0827,12150,029.0,045.5,0.253,753.1,01.17,0.508
2016-08-29 00:26:00,1975E-3,5C000400,-0724,0827,12282,029.0,045.5,0.253,753.0,01.17,0.508
2016-08-29 00:27:00,2019E-3,5C000400,-0724,0826,12188,028.9,045.5,0.253,753.0,01.17,0.508
2016-08-29 00:28:00,2061E-3,5C000400,-0724,0827,12244,028.9,045.5,0.253,753.1,01.17,0.508
2016-08-29 00:29:00,2077E-3,5C000400,-0724,0826,12261,029.0,045.5,0.253,753.1,01.17,0.508
2016-08-29 00:30:00,2127E-3,5C000400,-0724,0827,12063,029.0,045.5,0.253,753.1,01.17,0.508
2016-08-29 00:31:00,1991E-3,5C000400,-0724,0827,12236,029.0,045.5,0.253,753.1,01.17,0.508
2016-08-29 00:32:00,2078E-3,5C000400,-0724,0827,12286,029.0,045.5,0.253,753.1,01.17,0.508
2016-08-29 00:33:00,1880E-3,5C000400,-0724,0826,12137,029.0,045.5,0.253,753.1,01.17,0.508
2016-08-29 00:34:00,1980E-3,5C000400,-0724,0826,12266,029.0,045.5,0.253,753.1,01.17,0.508
2016-08-29 00:35:00,2031E-3,5C000400,-0724,0827,12333,029.0,045.5,0.253,753.1,01.17,0.508
2016-08-29 00:36:00,2050E-3,5C000400,-0724,0826,12249,029.0,045.5,0.253,753.1,01.17,0.508
2016-08-29 00:37:00,1960E-3,5C000400,-0724,0827,12282,029.0,045.5,0.253,753.2,01.17,0.508
2016-08-29 00:38:00,1967E-3,5C000400,-0724,0827,12230,029.0,045.5,0.253,753.2,01.17,0.508
2016-08-29 00:39:00,2005E-3,5C000400,-0724,0827,12106,029.0,045.5,0.253,753.1,01.17,0.508
2016-08-29 00:40:00,1975E-3,5C000400,-0724,0827,12250,028.9,045.5,0.253,753.2,01.17,0.508
2016-08-29 00:41:00,2034E-3,5C000400,-0724,0827,12216,029.0,045.5,0.253,753.2,01.17,0.508
2016-08-29 00:42:00,2232E-3,5C000400,-0724,0827,12125,029.0,045.5,0.254,753.1,01.17,0.508
2016-08-29 00:43:00,2127E-3,5C000400,-0724,0827,12275,029.0,045.5,0.253,753.1,01.17,0.508
2016-08-29 00:44:00,1970E-3,5C000400,-0724,0826,12145,029.0,045.5,0.254,753.2,01.17,0.508
2016-08-29 00:45:00,1940E-3,5C000400,-0724,0827,12222,029.0,045.5,0.253,753.2,01.17,0.508
2016-08-29 00:46:00,2073E-3,5C000400,-0724,0827,12258,029.0,045.5,0.253,753.2,01.17,0.508
2016-08-29 00:47:00,1890E-3,5C000400,-0724,0827,12231,029.0,045.5,0.253,753.3,01.17,0.508
2016-08-29 00:48:00,1988E-3,5C000400,-0724,0827,12274,029.0,045.5,0.253,753.3,01.17,0.508
2016-08-29 00:49:00,2152E-3,5C000400,-0724,0827,12367,029.0,045.5,0.253,753.3,01.17,0.508
2016-08-29 00:50:00,2011E-3,5C000400,-0724,0827,12201,029.0,045.5,0.253,753.3,01.17,0.508
2016-08-29 00:51:00,2179E-3,5C000400,-0724,0826,12295,028.9,045.5,0.253,753.3,01.17,0.508
2016-08-29 00:52:00,1993E-3,5C000400,-0724,0827,12328,028.9,045.5,0.253,753.3,01.17,0.508
2016-08-29 00:53:00,1989E-3,5C000400,-0724,0827,12210,028.9,045.5,0.253,753.2,01.17,0.508
2016-08-29 00:54:00,2092E-3,5C000400,-0724,0827,12242,028.9,045.5,0.253,753.2,01.17,0.508
2016-08-29 00:55:00,1966E-3,5C000400,-0724,0827,12389,028.9,045.5,0.253,753.2,01.17,0.508
2016-08-29 00:56:00,1968E-3,5C000400,-0724,0826,12241,028.9,045.5,0.253,753.3,01.17,0.508
2016-08-29 00:57:00,2118E-3,5C000400,-0724,0827,12233,028.9,045.5,0.253,753.3,01.17,0.508
2016-08-29 00:58:00,2030E-3,5C000400,-0724,0827,12177,028.9,045.5,0.253,753.2,01.17,0.508
2016-08-29 00:59:00,2100E-3,5C000400,-0724,0827,12154,028.9,045.5,0.253,753.2,01.17,0.508
2016-08-29 01:00:00,1949E-3,5C000400,-0724,0826,12155,028.8,045.5,0.253,753.1,01.17,0.508
2016-08-29 01:01:00,2125E-3,5C000400,-0724,0827,12257,028.9,045.5,0.253,753.3,01.17,0.508
2016-08-29 01:02:00,2134E-3,5C000400,-0724,0827,12202,028.8,045.5,0.253,753.2,01.17,0.508
2016-08-29 01:03:00,2015E-3,5C000400,-0724,0827,12185,028.8,045.5,0.254,753.3,01.17,0.508
2016-08-29 01:04:00,1931E-3,5C000400,-0724,0827,12254,028.9,045.5,0.253,753.3,01.17,0.508
2016-08-29 01:05:00,2167E-3,5C000400,-0724,0827,12320,028.8,045.4,0.253,753.3,01.17,0.508
2016-08-29 01:06:00,1946E-3,5C000400,-0724,0826,12151,028.8,045.5,0.253,753.3,01.17,0.508
2016-08-29 01:07:00,1966E-3,5C000400,-0724,0827,12200,028.8,045.4,0.253,753.3,01.17,0.508
2016-08-29 01:08:00,1959E-3,5C000400,-0724,0826,12253,028.8,045.5,0.254,753.3,01.17,0.508
2016-08-29 01:09:00,1891E-3,5C000400,-0724,0827,12324,028.8,045.5,0.253,753.3,01.17,0.508
2016-08-29 01:10:00,2123E-3,5C000400,-0724,0827,12149,028.8,045.5,0.253,753.2,01.17,0.508
2016-08-29 01:11:00,2043E-3,5C000400,-0724,0827,12096,028.8,045.5,0.254,753.3,01.17,0.508
2016-08-29 01:12:00,2127E-3,5C000400,-0724,0827,12135,028.8,045.5,0.253,753.3,01.17,0.508
2016-08-29 01:13:00,1969E-3,5C000400,-0724,0827,12156,028.8,045.5,0.254,753.3,01.17,0.508
2016-08-29 01:14:00,2120E-3,5C000400,-0724,0826,12116,028.7,045.5,0.253,753.2,01.17,0.508
2016-08-29 01:15:00,2128E-3,5C000400,-0724,0826,12267,028.7,045.5,0.254,753.2,01.17,0.508
2016-08-29 01:16:00,2029E-3,5C000400,-0724,0827,12107,028.7,045.5,0.254,753.3,01.17,0.508
2016-08-29 01:17:00,1933E-3,5C000400,-0724,0827,12122,028.7,045.5,0.253,753.2,01.17,0.508
2016-08-29 01:18:00,2206E-3,5C000400,-0724,0827,12193,028.7,045.5,0.254,753.2,01.17,0.508
2016-08-29 01:19:00,2115E-3,5C000400,-0724,0827,12170,028.7,045.5,0.254,753.2,01.17,0.508
2016-08-29 01:20:00,2095E-3,5C000400,-0724,0827,12258,028.7,045.5,0.253,753.2,01.17,0.508
2016-08-29 01:21:00,1945E-3,5C000400,-0724,0827,12106,028.7,045.5,0.254,753.2,01.17,0.508
2016-08-29 01:22:00,2002E-3,5C000400,-0724,0826,12259,028.6,045.5,0.254,753.3,01.17,0.508
2016-08-29 01:23:00,2154E-3,5C000400,-0724,0826,12128,028.7,045.5,0.254,753.3,01.17,0.508
2016-08-29 01:24:00,2041E-3,5C000400,-0724,0827,12288,028.7,045.5,0.254,753.3,01.17,0.508
2016-08-29 01:25:00,2002E-3,5C000400,-0724,0826,12311,028.7,045.5,0.253,753.2,01.17,0.508
2016-08-29 01:26:00,2112E-3,5C000400,-0724,0826,12084,028.7,045.4,0.254,753.3,01.17,0.508
2016-08-29 01:27:00,2037E-3,5C000400,-0724,0827,12282,028.7,045.5,0.254,753.3,01.17,0.508
2016-08-29 01:28:00,1988E-3,5C000400,-0724,0826,12274,028.7,045.5,0.253,753.3,01.17,0.508
2016-08-29 01:29:00,1872E-3,5C000400,-0724,0826,12289,028.6,045.5,0.254,753.2,01.17,0.508
2016-08-29 01:30:00,2067E-3,5C000400,-0724,0826,12249,028.6,045.5,0.254,753.3,01.17,0.508
2016-08-29 01:31:00,2023E-3,5C000400,-0724,0827,12182,028.6,045.5,0.253,753.2,01.17,0.508
2016-08-29 01:32:00,1947E-3,5C000400,-0724,0826,12264,028.6,045.5,0.254,753.2,01.17,0.508
2016-08-29 01:33:00,1927E-3,5C000400,-0724,0827,12273,028.6,045.5,0.254,753.3,01.17,0.508
2016-08-29 01:34:00,1935E-3,5C000400,-0724,0826,12277,028.6,045.5,0.254,753.2,01.17,0.508
2016-08-29 01:35:00,2034E-3,5C000400,-0724,0826,12186,028.6,045.5,0.254,753.3,01.17,0.508
2016-08-29 01:36:00,2045E-3,5C000400,-0724,0827,12264,028.7,045.5,0.254,753.3,01.17,0.508
2016-08-29 01:37:00,2178E-3,5C000400,-0724,0827,12297,028.7,045.5,0.253,753.3,01.17,0.508
2016-08-29 01:38:00,1979E-3,5C000400,-0724,0828,12205,028.6,045.5,0.254,753.3,01.17,0.508
2016-08-29 01:39:00,1970E-3,5C000400,-0724,0825,12125,028.6,045.5,0.254,753.3,01.17,0.508
2016-08-29 01:40:00,1905E-3,5C000400,-0724,0827,12170,028.7,045.5,0.253,753.3,01.17,0.508
2016-08-29 01:41:00,2000E-3,5C000400,-0724,0827,12307,028.7,045.5,0.254,753.3,01.17,0.508
2016-08-29 01:42:00,2007E-3,5C000400,-0724,0827,12230,028.6,045.5,0.254,753.3,01.17,0.508
2016-08-29 01:43:00,2104E-3,5C000400,-0724,0827,12237,028.7,045.5,0.254,753.3,01.17,0.508
2016-08-29 01:44:00,2066E-3,5C000400,-0724,0826,12216,028.7,045.5,0.254,753.3,01.17,0.508
2016-08-29 01:45:00,1901E-3,5C000400,-0724,0826,12318,028.7,045.5,0.254,753.4,01.17,0.508
2016-08-29 01:46:00,2053E-3,5C000400,-0724,0827,12206,028.7,045.5,0.254,753.5,01.17,0.508
2016-08-29 01:47:00,1967E-3,5C000400,-0724,0827,12322,028.7,045.4,0.254,753.4,01.17,0.508
2016-08-29 01:48:00,2024E-3,5C000400,-0724,0827,12163,028.7,045.5,0.253,753.4,01.17,0.508
2016-08-29 01:49:00,2065E-3,5C000400,-0724,0826,12199,028.7,045.5,0.254,753.4,01.17,0.508
2016-08-29 01:50:00,2122E-3,5C000400,-0724,0827,12085,028.7,045.5,0.254,753.4,01.17,0.508
2016-08-29 01:51:00,2020E-3,5C000400,-0724,0827,12320,028.7,045.5,0.253,753.4,01.17,0.508
2016-08-29 01:52:00,2097E-3,5C000400,-0724,0828,12359,028.7,045.5,0.254,753.5,01.17,0.508
2016-08-29 01:53:00,2028E-3,5C000400,-0724,0827,12225,028.7,045.5,0.254,753.5,01.17,0.508
2016-08-29 01:54:00,1982E-3,5C000400,-0724,0827,12321,028.7,045.5,0.253,753.4,01.17,0.508
2016-08-29 01:55:00,2136E-3,5C000400,-0724,0827,12068,028.7,045.5,0.254,753.4,01.17,0.508
2016-08-29 01:56:00,1938E-3,5C000400,-0724,0827,12317,028.7,045.5,0.254,753.4,01.17,0.508
2016-08-29 01:57:00,2049E-3,5C000400,-0724,0827,12169,028.7,045.5,0.253,753.4,01.17,0.508
2016-08-29 01:58:00,2012E-3,5C000400,-0724,0827,12217,028.7,045.4,0.254,753.4,01.17,0.508
2016-08-29 01:59:00,1966E-3,5C000400,-0724,0827,12207,028.7,045.5,0.254,753.4,01.17,0.508
2016-08-29 02:00:00,1969E-3,5C000400,-0724,0827,12204,028.7,045.5,0.253,753.4,01.17,0.508
2016-08-29 02:01:00,2002E-3,5C000400,-0724,0827,12088,028.7,045.5,0.254,753.5,01.17,0.508
2016-08-29 02:02:00,1901E-3,5C000400,-0724,0827,12102,028.7,045.5,0.254,753.4,01.17,0.508
2016-08-29 02:03:00,2093E-3,5C000400,-0724,0827,12161,028.8,045.5,0.253,753.5,01.17,0.508
2016-08-29 02:04:00,1974E-3,5C000400,-0724,0827,12158,028.8,045.5,0.254,753.5,01.17,0.508
2016-08-29 02:05:00,1957E-3,5C000400,-0724,0827,12224,028.8,045.5,0.254,753.5,01.17,0.508
2016-08-29 02:06:00,2028E-3,5C000400,-0724,0826,12171,028.8,045.5,0.253,753.4,01.17,0.508
2016-08-29 02:07:00,1997E-3,5C000400,-0724,0826,12315,028.8,045.5,0.254,753.4,01.17,0.508
2016-08-29 02:08:00,1955E-3,5C000400,-0724,0827,12182,028.8,045.5,0.254,753.4,01.17,0.508
2016-08-29 02:09:00,2030E-3,5C000400,-0724,0827,12043,028.8,045.5,0.253,753.4,01.17,0.508
2016-08-29 02:10:00,1950E-3,5C000400,-0724,0827,12196,028.8,045.5,0.254,753.4,01.17,0.508
2016-08-29 02:11:00,2003E-3,5C000400,-0724,0827,12349,028.8,045.5,0.254,753.5,01.17,0.508
2016-08-29 02:12:00,1908E-3,5C000400,-0724,0826,12177,028.8,045.5,0.253,753.4,01.17,0.508
2016-08-29 02:13:00,2150E-3,5C000400,-0724,0826,12255,028.8,045.5,0.254,753.5,01.17,0.508
2016-08-29 02:14:00,2051E-3,5C000400,-0724,0826,12333,028.9,045.5,0.254,753.5,01.17,0.508
2016-08-29 02:15:00,1887E-3,5C000400,-0724,0827,12250,028.8,045.5,0.253,753.4,01.17,0.508
2016-08-29 02:16:00,1988E-3,5C000400,-0724,0826,12273,028.8,045.5,0.253,753.4,01.17,0.508
2016-08-29 02:17:00,2044E-3,5C000400,-0724,0827,12326,028.8,045.4,0.254,753.5,01.17,0.508
2016-08-29 02:18:00,2002E-3,5C000400,-0724,0826,12204,028.8,045.5,0.254,753.4,01.17,0.508
2016-08-29 02:19:00,2063E-3,5C000400,-0724,0826,12382,028.9,045.5,0.253,753.4,01.17,0.508
2016-08-29 02:20:00,2008E-3,5C000400,-0724,0826,12202,028.9,045.5,0.254,753.4,01.17,0.508
2016-08-29 02:21:00,1974E-3,5C000400,-0724,0827,12090,028.9,045.5,0.254,753.4,01.17,0.508
2016-08-29 02:22:00,1972E-3,5C000400,-0724,0826,12267,028.9,045.5,0.253,753.3,01.17,0.508
2016-08-29 02:23:00,2103E-3,5C000400,-0724,0826,12097,028.9,045.5,0.254,753.4,01.17,0.508
2016-08-29 02:24:00,2021E-3,5C000400,-0724,0826,12162,028.9,045.5,0.254,753.3,01.17,0.508
2016-08-29 02:25:00,2041E-3,5C000400,-0724,0826,12369,028.9,045.5,0.253,753.4,01.17,0.508
2016-08-29 02:26:00,1914E-3,5C000400,-0724,0827,12161,028.9,045.5,0.253,753.4,01.17,0.508
2016-08-29 02:27:00,2146E-3,5C000400,-0724,0827,12292,028.9,045.5,0.253,753.4,01.17,0.508
2016-08-29 02:28:00,2211E-3,5C000400,-0724,0827,12028,028.9,045.5,0.253,753.4,01.17,0.508
2016-08-29 02:29:00,1998E-3,5C000400,-0724,0827,12108,028.9,045.5,0.253,753.4,01.17,0.508
2016-08-29 02:30:00,1856E-3,5C000400,-0724,0826,12152,029.0,045.5,0.253,753.4,01.17,0.508
2016-08-29 02:31:00,1879E-3,5C000400,-0724,0827,12164,029.0,045.5,0.253,753.3,01.17,0.508
2016-08-29 02:32:00,2075E-3,5C000400,-0724,0826,12081,029.0,045.5,0.253,753.3,01.17,0.508
2016-08-29 02:33:00,2015E-3,5C000400,-0724,0827,12147,029.0,045.5,0.254,753.3,01.17,0.508
2016-08-29 02:34:00,2015E-3,5C000400,-0724,0827,12361,029.0,045.5,0.253,753.4,01.17,0.508
2016-08-29 02:35:00,2001E-3,5C000400,-0724,0827,12188,029.0,045.5,0.253,753.4,01.17,0.508
2016-08-29 02:36:00,1985E-3,5C000400,-0724,0827,12196,029.0,045.5,0.253,753.4,01.17,0.508
2016-08-29 02:37:00,2085E-3,5C000400,-0724,0827,12302,029.0,045.5,0.253,753.4,01.17,0.508
2016-08-29 02:38:00,2019E-3,5C000400,-0724,0827,12153,029.1,045.5,0.253,753.5,01.17,0.508
2016-08-29 02:39:00,1950E-3,5C000400,-0724,0827,12327,029.1,045.5,0.253,753.4,01.17,0.508
2016-08-29 02:40:00,2063E-3,5C000400,-0724,0827,12161,029.0,045.5,0.253,753.5,01.17,0.508
2016-08-29 02:41:00,2014E-3,5C000400,-0724,0827,12189,029.1,045.5,0.253,753.4,01.17,0.508
2016-08-29 02:42:00,2054E-3,5C000400,-0724,0827,12227,029.0,045.5,0.254,753.3,01.17,0.508
2016-08-29 02:43:00,2019E-3,5C000400,-0724,0827,12368,029.1,045.5,0.253,753.4,01.17,0.508
2016-08-29 02:44:00,2043E-3,5C000400,-0724,0827,12172,029.1,045.5,0.254,753.4,01.17,0.508
2016-08-29 02:45:00,2159E-3,5C000400,-0724,0827,12064,029.1,045.5,0.253,753.4,01.17,0.508
2016-08-29 02:46:00,1954E-3,5C000400,-0724,0827,12279,029.1,045.5,0.253,753.4,01.17,0.508
2016-08-29 02:47:00,1963E-3,5C000400,-0724,0827,12230,029.1,045.5,0.253,753.4,01.17,0.508
2016-08-29 02:48:00,2042E-3,5C000400,-0724,0826,12288,029.1,045.5,0.253,753.4,01.17,0.508
2016-08-29 02:49:00,2128E-3,5C000400,-0724,0826,12097,029.1,045.5,0.253,753.4,01.17,0.508
2016-08-29 02:50:00,2060E-3,5C000400,-0724,0826,12127,029.1,045.5,0.253,753.4,01.17,0.508
2016-08-29 02:51:00,2056E-3,5C000400,-0724,0827,12305,029.1,045.5,0.253,753.4,01.17,0.508
2016-08-29 02:52:00,2133E-3,5C000400,-0724,0827,12204,029.1,045.5,0.253,753.4,01.17,0.508
2016-08-29 02:53:00,2084E-3,5C000400,-0724,0827,12092,029.1,045.5,0.253,753.5,01.17,0.508
2016-08-29 02:54:00,2018E-3,5C000400,-0724,0827,12231,029.1,045.5,0.253,753.5,01.17,0.508
2016-08-29 02:55:00,1980E-3,5C000400,-0724,0826,12327,029.1,045.5,0.253,753.5,01.17,0.508
2016-08-29 02:56:00,1963E-3,5C000400,-0724,0827,12160,029.2,045.5,0.253,753.5,01.17,0.508
2016-08-29 02:57:00,2066E-3,5C000400,-0724,0827,12327,029.2,045.5,0.253,753.6,01.17,0.508
2016-08-29 02:58:00,1999E-3,5C000400,-0724,0826,12204,029.1,045.5,0.253,753.6,01.17,0.508
2016-08-29 02:59:00,1993E-3,5C000400,-0724,0826,12156,029.2,045.5,0.253,753.6,01.17,0.508
2016-08-29 03:00:00,2217E-3,5C000400,-0724,0827,12226,029.2,045.5,0.253,753.6,01.17,0.508
2016-08-29 03:01:00,2030E-3,5C000400,-0724,0827,12214,029.2,045.5,0.253,753.5,01.17,0.508
2016-08-29 03:02:00,2018E-3,5C000400,-0724,0827,12339,029.2,045.5,0.253,753.5,01.17,0.508
2016-08-29 03:03:00,2177E-3,5C000400,-0724,0827,11882,029.2,045.5,0.253,753.6,01.17,0.508
2016-08-29 03:04:00,1982E-3,5C000400,-0724,0826,12138,029.2,045.5,0.253,753.6,01.17,0.508
2016-08-29 03:05:00,2100E-3,5C000400,-0724,0826,12107,029.2,045.5,0.253,753.7,01.17,0.508
2016-08-29 03:06:00,2020E-3,5C000400,-0724,0826,12227,029.2,045.5,0.253,753.6,01.17,0.508
2016-08-29 03:07:00,2035E-3,5C000400,-0724,0827,12272,029.2,045.5,0.253,753.6,01.17,0.508
2016-08-29 03:08:00,1982E-3,5C000400,-0724,0827,12320,029.2,045.5,0.252,753.6,01.17,0.508
2016-08-29 03:09:00,2067E-3,5C000400,-0724,0827,12116,029.2,045.5,0.253,753.5,01.17,0.508
2016-08-29 03:10:00,2053E-3,5C000400,-0724,0827,12094,029.2,045.5,0.253,753.6,01.17,0.508
2016-08-29 03:11:00,1970E-3,5C000400,-0724,0827,12237,029.3,045.5,0.252,753.7,01.17,0.508
2016-08-29 03:12:00,1997E-3,5C000400,-0724,0827,12046,029.3,045.5,0.253,753.6,01.17,0.508
2016-08-29 03:13:00,1806E-3,5C000400,-0724,0828,12185,029.3,045.5,0.253,753.7,01.17,0.508
2016-08-29 03:14:00,2004E-3,5C000400,-0724,0826,12233,029.3,045.5,0.252,753.7,01.17,0.508
2016-08-29 03:15:00,2088E-3,5C000400,-0724,0827,12130,029.3,045.5,0.253,753.6,01.17,0.508
2016-08-29 03:16:00,2006E-3,5C000400,-0724,0826,12137,029.3,045.5,0.253,753.7,01.17,0.508
2016-08-29 03:17:00,1976E-3,5C000400,-0724,0827,12263,029.3,045.5,0.252,753.6,01.17,0.508
2016-08-29 03:18:00,2002E-3,5C000400,-0724,0827,12284,029.3,045.5,0.253,753.7,01.17,0.508
2016-08-29 03:19:00,2087E-3,5C000400,-0724,0826,12197,029.3,045.5,0.253,753.6,01.17,0.508
2016-08-29 03:20:00,2098E-3,5C000400,-0724,0827,12330,029.3,045.5,0.253,753.6,01.17,0.508
2016-08-29 03:21:00,2036E-3,5C000400,-0724,0827,12160,029.3,045.5,0.253,753.7,01.17,0.508
2016-08-29 03:22:00,2011E-3,5C000400,-0724,0827,12327,029.4,045.5,0.252,753.6,01.17,0.508
2016-08-29 03:23:00,2033E-3,5C000400,-0724,0827,12360,029.3,045.5,0.253,753.7,01.17,0.508
2016-08-29 03:24:00,2018E-3,5C000400,-0724,0827,12288,029.3,045.5,0.253,753.7,01.17,0.508
2016-08-29 03:25:00,2178E-3,5C000400,-0724,0827,12244,029.4,045.5,0.252,753.7,01.17,0.508
2016-08-29 03:26:00,2110E-3,5C000400,-0724,0826,12121,029.3,045.5,0.253,753.6,01.17,0.508
2016-08-29 03:27:00,2174E-3,5C000400,-0724,0826,12119,029.4,045.5,0.253,753.6,01.17,0.508
2016-08-29 03:28:00,2030E-3,5C000400,-0724,0827,12418,029.4,045.5,0.252,753.7,01.17,0.508
2016-08-29 03:29:00,1910E-3,5C000400,-0724,0827,12175,029.4,045.5,0.253,753.6,01.17,0.508
2016-08-29 03:30:00,1905E-3,5C000400,-0724,0827,11975,029.4,045.5,0.252,753.6,01.17,0.508
2016-08-29 03:31:00,1925E-3,5C000400,-0724,0826,12249,029.4,045.5,0.252,753.7,01.17,0.508
2016-08-29 03:32:00,2014E-3,5C000400,-0724,0827,12223,029.4,045.5,0.253,753.7,01.17,0.508
2016-08-29 03:33:00,2022E-3,5C000400,-0724,0827,12341,029.4,045.5,0.253,753.8,01.17,0.508
2016-08-29 03:34:00,2041E-3,5C000400,-0724,0827,12160,029.4,045.5,0.252,753.7,01.17,0.508
2016-08-29 03:35:00,1994E-3,5C000400,-0724,0826,12299,029.5,045.5,0.252,753.7,01.17,0.508
2016-08-29 03:36:00,1989E-3,5C000400,-0724,0827,12011,029.5,045.5,0.253,753.7,01.17,0.508
2016-08-29 03:37:00,2096E-3,5C000400,-0724,0827,12273,029.4,045.5,0.252,753.7,01.17,0.508
2016-08-29 03:38:00,1997E-3,5C000400,-0724,0827,12289,029.5,045.5,0.252,753.7,01.17,0.508
2016-08-29 03:39:00,1995E-3,5C000400,-0724,0827,12224,029.5,045.5,0.253,753.7,01.17,0.508
2016-08-29 03:40:00,2053E-3,5C000400,-0724,0826,12266,029.5,045.5,0.252,753.7,01.17,0.508
2016-08-29 03:41:00,1852E-3,5C000400,-0724,0826,12171,029.5,045.5,0.253,753.7,01.17,0.508
2016-08-29 03:42:00,2019E-3,5C000400,-0724,0826,12176,029.5,045.5,0.252,753.8,01.17,0.508
2016-08-29 03:43:00,1947E-3,5C000400,-0724,0827,12113,029.5,045.5,0.253,753.7,01.17,0.508
2016-08-29 03:44:00,2041E-3,5C000400,-0724,0827,12217,029.5,045.5,0.253,753.8,01.17,0.508
2016-08-29 03:45:00,2166E-3,5C000400,-0724,0827,12235,029.5,045.5,0.252,753.8,01.17,0.508
2016-08-29 03:46:00,2056E-3,5C000400,-0724,0827,12171,029.5,045.5,0.253,753.7,01.17,0.508
2016-08-29 03:47:00,2208E-3,5C000400,-0724,0827,12247,029.5,045.5,0.252,753.7,01.17,0.508
2016-08-29 03:48:00,1956E-3,5C000400,-0724,0827,12196,029.5,045.5,0.252,753.8,01.17,0.508
2016-08-29 03:49:00,2038E-3,5C000400,-0724,0827,12230,029.5,045.5,0.252,753.7,01.17,0.508
2016-08-29 03:50:00,2008E-3,5C000400,-0724,0827,12128,029.5,045.5,0.252,753.6,01.17,0.508
2016-08-29 03:51:00,2100E-3,5C000400,-0724,0827,12336,029.5,045.5,0.252,753.6,01.17,0.508
2016-08-29 03:52:00,1966E-3,5C000400,-0724,0828,12198,029.6,045.5,0.252,753.7,01.17,0.508
2016-08-29 03:53:00,2030E-3,5C000400,-0724,0827,12203,029.6,045.5,0.252,753.7,01.17,0.508
2016-08-29 03:54:00,1966E-3,5C000400,-0724,0828,12265,029.5,045.5,0.252,753.7,01.17,0.508
2016-08-29 03:55:00,2062E-3,5C000400,-0724,0826,12221,029.6,045.5,0.252,753.7,01.17,0.508
2016-08-29 03:56:00,2046E-3,5C000400,-0724,0827,12096,029.6,045.5,0.252,753.7,01.17,0.508
2016-08-29 03:57:00,2004E-3,5C000400,-0724,0828,12177,029.6,045.5,0.252,753.7,01.17,0.508
2016-08-29 03:58:00,2102E-3,5C000400,-0724,0828,12233,029.6,045.5,0.252,753.7,01.17,0.508
2016-08-29 03:59:00,2046E-3,5C000400,-0724,0827,12226,029.6,045.5,0.252,753.7,01.17,0.508
2016-08-29 04:00:00,2105E-3,5C000400,-0724,0827,12338,029.6,045.5,0.252,753.6,01.17,0.508
2016-08-29 04:01:00,1917E-3,5C000400,-0724,0827,12238,029.6,045.5,0.252,753.6,01.17,0.508
2016-08-29 04:02:00,2062E-3,5C000400,-0724,0828,12119,029.6,045.5,0.252,753.7,01.17,0.508
2016-08-29 04:03:00,2099E-3,5C000400,-0724,0827,12338,029.6,045.5,0.252,753.6,01.17,0.508
2016-08-29 04:04:00,2023E-3,5C000400,-0724,0828,12259,029.6,045.5,0.252,753.6,01.17,0.508
2016-08-29 04:05:00,2010E-3,5C000400,-0724,0826,12188,029.6,045.5,0.252,753.6,01.17,0.508
2016-08-29 04:06:00,2088E-3,5C000400,-0724,0827,12217,029.7,045.5,0.252,753.6,01.17,0.508
2016-08-29 04:07:00,1985E-3,5C000400,-0724,0827,12151,029.7,045.5,0.252,753.5,01.17,0.508
2016-08-29 04:08:00,2024E-3,5C000400,-0724,0827,12077,029.7,045.5,0.252,753.7,01.17,0.508
2016-08-29 04:09:00,2004E-3,5C000400,-0724,0827,12410,029.7,045.5,0.252,753.6,01.17,0.508
2016-08-29 04:10:00,2090E-3,5C000400,-0724,0827,12327,029.7,045.5,0.252,753.6,01.17,0.508
2016-08-29 04:11:00,1989E-3,5C000400,-0724,0827,12147,029.7,045.5,0.252,753.7,01.17,0.508
2016-08-29 04:12:00,2044E-3,5C000400,-0724,0827,12315,029.7,045.5,0.252,753.7,01.17,0.508
2016-08-29 04:13:00,1900E-3,5C000400,-0724,0827,12312,029.7,045.5,0.252,753.7,01.17,0.508
2016-08-29 04:14:00,2076E-3,5C000400,-0724,0827,12006,029.7,045.5,0.252,753.7,01.17,0.508
2016-08-29 04:15:00,1983E-3,5C000400,-0724,0827,12145,029.7,045.5,0.252,753.6,01.17,0.508
2016-08-29 04:16:00,2101E-3,5C000400,-0724,0828,12324,029.7,045.5,0.252,753.7,01.17,0.508
2016-08-29 04:17:00,2060E-3,5C000400,-0724,0827,12226,029.7,045.5,0.252,753.7,01.17,0.508
2016-08-29 04:18:00,2079E-3,5C000400,-0724,0827,12202,029.7,045.5,0.252,753.7,01.17,0.508
2016-08-29 04:19:00,2080E-3,5C000400,-0724,0827,12289,029.8,045.5,0.252,753.7,01.17,0.508
2016-08-29 04:20:00,2003E-3,5C000400,-0724,0827,12409,029.8,045.5,0.251,753.7,01.17,0.508